Hourly Data Report for September 21, 2017

All times are specified in Local Standard Time (LST). Add 1 hour to adjust for Daylight Saving Time where and when it is observed.

QIKIQTARJUAQ A
NUNAVUT

67°32'48.000" N
64°01'54.000" W
5.50 m
2400577
YVM

Related Data

No related data is available for this station

Download Data

Hourly Data (September 2017)
Hourly Data Report for September 21, 2017
Temp Definition
°C
Dew Point Temp Definition
°C
Rel Hum Definition
%
Wind Dir Definition
10's deg

Wind Spd Definition
km/h
Visibility Definition
km
Stn Press Definition
kPa
Hmdx Definition


Wind Chill Definition


Weather Definition


TIME
00:00 Legend Double Dagger 0.3 -0.7 93 36 15 6.4 102.30     Snow
01:00 Legend Double Dagger 0.0 -0.5 96 3 13 16.1 102.28   -4 Rain
02:00 Legend Double Dagger 0.1 -0.5 96 1 13 12.9 102.27     Rain
03:00 Legend Double Dagger -0.4 -1.0 96 4 13 4.0 102.24   -5 Snow
04:00 Legend Double Dagger -0.3 -0.6 98 3 13 3.2 102.21   -4 Snow
05:00 Legend Double Dagger -0.7 -1.1 97 4 15 4.0 102.22   -5 Snow
06:00 Legend Double Dagger -0.8 -1.2 97 5 11 6.4 102.20   -5 Snow
07:00 Legend Double Dagger -0.3 -2.1 88 36 9 16.1 102.16   -3 Snow
08:00 Legend Double Dagger -0.2 -1.8 89   0 16.1 102.11     LegendNANA
09:00 Legend Double Dagger 0.3 -3.4 76 29 9 16.1 102.05     LegendNANA
10:00 Legend Double Dagger 0.5 -3.3 76 34 11 16.1 101.98     LegendNANA
11:00 Legend Double Dagger 0.6 -4.9 67 2 11 16.1 101.92     LegendNANA
12:00 Legend Double Dagger 0.7 -4.5 69 34 4 16.1 101.84     LegendNANA
13:00 Legend Double Dagger 1.0 -6.2 59 1 9 16.1 101.80     LegendNANA
14:00 Legend Double Dagger 0.9 -4.8 66 34 17 16.1 101.74     LegendNANA
15:00 Legend Double Dagger 0.9 -4.9 65 34 18 16.1 101.69     LegendNANA
16:00 Legend Double Dagger 0.2 -4.9 69 30 13 16.1 101.67     LegendNANA
17:00 Legend Double Dagger 0.6 -5.7 63 28 13 16.1 101.62     LegendNANA
18:00 Legend Double Dagger 0.0 -4.0 75   0 16.1 101.59     LegendNANA
19:00 Legend Double Dagger 0.0 -5.7 66 30 5 16.1 101.53   -2 LegendNANA
20:00 Legend Double Dagger 0.1 -3.3 78 34 13 16.1 101.48     LegendNANA
21:00 Legend Double Dagger -0.6 -4.2 77 LegendMM 4 16.1 101.40   -2 LegendNANA
22:00 Legend Double Dagger -0.4 -4.4 74 30 8 16.1 101.37   -3 LegendNANA
23:00 Legend Double Dagger -1.1 -2.1 93 1 30 12.9 101.33   -8 Snow

Notes on Data Quality.

Legend

  • E = Estimated
  • M = Missing
  • NA = Not Available
  • ‡ = Partner data that is not subject to review by the National Climate Archives
Date modified: